User: anonymous   Login
Location: Unspecified
(0.0000°N, 0.0000°E)
Time: 11:03:19
(UTC+00:00)
Language:

ELEKTRO-L - Orbit

View from above orbital plane
View from above orbital plane
View from above satellite
View from above satellite

Ground track
Ground track

The orbit data is extracted from the following two-line orbital elements,

1 37344U 11001A   14304.83609844 -.00000110  00000-0  00000+0 0  1318
2 37344 000.5051 080.5948 0001011 190.5528 145.8152 01.00271272 13890
Epoch (UTC): 31 October 2014 20:03:58
Eccentricity: 0.0001011
inclination: 0.5051°
perigee height: 35782 km
apogee height: 35790 km
right ascension of ascending node: 80.5948°
argument of perigee: 190.5528°
revolutions per day: 1.00271272
mean anomaly at epoch: 145.8152°
orbit number at epoch: 1389

The dashed part of the orbit path shows where the satellite is in the earth's shadow,  

DLR